XIO230 CYYT-LFMQ

Flight info

Callsign XIO230
Flight time 5h 9m
Altitude 41000
Route NICSO DCT 4850N DCT 5040N DCT 5230N DCT 5320N DCT MALOT/N0514F410 DCT GISTI DCT LONDU DCT LODLA DCT LESLU/N0511F430 DCT LIZAD DCT FEJAC DCT ELKUK DCT LARON DCT LERGA
Aircraft GLF6/M-SBDE1E2E3FGHIJ3J4J5J7M1P2RWXYZ/LB1D1

Departure

Time 2026-04-24 09:06
Airport St. John's International Airport (CYYT)

Arrival

Time 2026-04-24 14:16
Airport Le Castellet Airport (LFMQ)
Time Latitude Longitude Altitude Speed Heading
2026-04-24 08:47 47.60993 -52.74002 443 ft 0 kts 358°
2026-04-24 09:03 47.60999 -52.74002 429 ft 5 kts 358°
2026-04-24 09:03 47.61025 -52.73995 432 ft 0 kts 20°
2026-04-24 09:04 47.61034 -52.73991 439 ft 5 kts 20°
2026-04-24 09:04 47.61102 -52.73954 438 ft 16 kts 13°
2026-04-24 09:04 47.61234 -52.73967 436 ft 20 kts 355°
2026-04-24 09:04 47.61275 -52.73934 439 ft 5 kts 94°
2026-04-24 09:05 47.61255 -52.73856 436 ft 14 kts 115°
2026-04-24 09:05 47.61198 -52.73696 419 ft 21 kts 121°
2026-04-24 09:05 47.61122 -52.73486 416 ft 20 kts 118°
2026-04-24 09:05 47.61137 -52.73358 416 ft 8 kts 55°
2026-04-24 09:06 47.61172 -52.73371 412 ft 5 kts 319°
2026-04-24 09:06 47.61353 -52.73601 415 ft 74 kts 320°
2026-04-24 09:06 47.61945 -52.74360 441 ft 149 kts 320°
2026-04-24 09:06 47.62742 -52.75378 1366 ft 150 kts 321°
2026-04-24 09:07 47.63635 -52.76482 1924 ft 201 kts 321°
2026-04-24 09:07 47.64830 -52.78087 2568 ft 247 kts 319°
2026-04-24 09:07 47.67181 -52.81946 5926 ft 264 kts 293°
2026-04-24 09:08 47.67435 -52.84664 7146 ft 272 kts 264°
2026-04-24 09:08 47.67118 -52.86478 7684 ft 277 kts 244°
2026-04-24 09:08 47.65930 -52.88674 8817 ft 275 kts 216°
2026-04-24 09:08 47.63609 -52.90173 10201 ft 277 kts 194°
2026-04-24 09:09 47.61728 -52.90803 11224 ft 279 kts 183°
2026-04-24 09:09 47.59751 -52.90398 11758 ft 302 kts 160°
2026-04-24 09:09 47.57908 -52.88652 12110 ft 331 kts 137°
2026-04-24 09:09 47.56912 -52.86803 12325 ft 351 kts 124°
2026-04-24 09:10 47.55961 -52.83362 12902 ft 371 kts 103°
2026-04-24 09:10 47.55671 -52.79548 13970 ft 375 kts 98°
2026-04-24 09:10 47.55393 -52.75735 14866 ft 380 kts 99°
2026-04-24 09:10 47.55125 -52.71815 15820 ft 385 kts 98°
2026-04-24 09:11 47.54877 -52.67846 16770 ft 390 kts 99°
2026-04-24 09:11 47.54601 -52.63833 17722 ft 394 kts 99°
2026-04-24 09:11 47.54310 -52.59775 18597 ft 399 kts 99°
2026-04-24 09:11 47.54023 -52.55645 19364 ft 406 kts 99°
2026-04-24 09:12 47.53733 -52.51456 20109 ft 412 kts 100°
2026-04-24 09:12 47.53433 -52.47209 20924 ft 417 kts 100°
2026-04-24 09:12 47.53128 -52.42904 21690 ft 423 kts 100°
2026-04-24 09:12 47.52816 -52.38547 22451 ft 429 kts 101°
2026-04-24 09:13 47.52501 -52.34128 23201 ft 435 kts 101°
2026-04-24 09:13 47.52179 -52.29653 23855 ft 440 kts 101°
2026-04-24 09:13 47.51849 -52.25117 24382 ft 447 kts 101°
2026-04-24 09:13 47.51516 -52.20522 25008 ft 452 kts 101°
2026-04-24 09:14 47.51177 -52.15877 25639 ft 456 kts 101°
2026-04-24 09:14 47.50834 -52.11240 26244 ft 461 kts 101°
2026-04-24 09:14 47.50503 -52.06500 26845 ft 467 kts 99°
2026-04-24 09:14 47.50556 -52.01637 27416 ft 478 kts 90°
2026-04-24 09:15 47.51080 -51.96737 28009 ft 488 kts 81°
2026-04-24 09:15 47.52105 -51.91892 28589 ft 497 kts 73°
2026-04-24 09:15 47.53369 -51.87095 29138 ft 502 kts 73°
2026-04-24 09:15 47.54613 -51.82270 29925 ft 501 kts 73°
2026-04-24 09:16 47.55861 -51.77421 30389 ft 506 kts 72°
2026-04-24 09:16 47.57132 -51.72529 30872 ft 510 kts 72°
2026-04-24 09:16 47.58405 -51.67610 31340 ft 513 kts 73°
2026-04-24 09:16 47.59679 -51.62638 31632 ft 520 kts 73°
2026-04-24 09:17 47.60971 -51.57592 31938 ft 526 kts 73°
2026-04-24 09:17 47.62275 -51.52524 32513 ft 527 kts 73°
2026-04-24 09:17 47.63577 -51.47429 33011 ft 529 kts 73°
2026-04-24 09:17 47.64876 -51.42317 33453 ft 531 kts 73°
2026-04-24 09:18 47.66177 -51.37165 33856 ft 534 kts 73°
2026-04-24 09:18 47.67482 -51.32084 34416 ft 531 kts 72°
2026-04-24 09:18 47.68790 -51.26975 34977 ft 529 kts 73°
2026-04-24 09:18 47.70064 -51.21864 35421 ft 528 kts 73°
2026-04-24 09:19 47.71342 -51.16749 35882 ft 528 kts 72°
2026-04-24 09:19 47.72637 -51.11653 36332 ft 527 kts 72°
2026-04-24 09:19 47.73924 -51.06556 36765 ft 526 kts 72°
2026-04-24 09:19 47.75195 -51.01445 37185 ft 526 kts 72°
2026-04-24 09:20 47.76462 -50.96354 37607 ft 525 kts 72°
2026-04-24 09:20 47.78164 -50.89553 38175 ft 524 kts 72°
2026-04-24 09:20 47.79006 -50.86168 38447 ft 524 kts 72°
2026-04-24 09:20 47.80264 -50.81088 38763 ft 523 kts 72°
2026-04-24 09:21 47.81522 -50.76005 39051 ft 523 kts 72°
2026-04-24 09:21 47.82763 -50.70985 39324 ft 523 kts 72°
2026-04-24 09:21 47.84016 -50.65901 39594 ft 523 kts 72°
2026-04-24 09:21 47.85267 -50.60809 39862 ft 523 kts 72°
2026-04-24 09:22 47.86517 -50.55719 40131 ft 524 kts 72°
2026-04-24 09:22 47.87766 -50.50616 40244 ft 528 kts 72°
2026-04-24 09:22 47.90299 -50.40231 40404 ft 536 kts 72°
2026-04-24 09:23 47.91567 -50.35019 40696 ft 535 kts 72°
2026-04-24 09:23 47.92836 -50.29783 40806 ft 537 kts 72°
2026-04-24 09:23 47.95343 -50.19418 40807 ft 528 kts 72°
2026-04-24 09:24 47.97829 -50.09074 40794 ft 531 kts 72°
2026-04-24 09:24 48.00313 -49.98759 40805 ft 531 kts 71°
2026-04-24 09:25 48.02921 -49.88448 40809 ft 530 kts 71°
2026-04-24 09:25 48.05506 -49.78100 40805 ft 531 kts 71°
2026-04-24 09:26 48.08097 -49.67748 40851 ft 532 kts 71°
2026-04-24 09:26 48.10674 -49.57371 40809 ft 530 kts 71°
2026-04-24 09:27 48.13235 -49.47019 40806 ft 531 kts 71°
2026-04-24 09:27 48.15774 -49.36709 40808 ft 531 kts 71°
2026-04-24 09:28 48.18328 -49.26294 40808 ft 531 kts 72°
2026-04-24 09:28 48.20865 -49.15893 40811 ft 532 kts 72°
2026-04-24 09:29 48.23398 -49.05465 40806 ft 532 kts 72°
2026-04-24 09:29 48.25920 -48.95026 40806 ft 532 kts 72°
2026-04-24 09:30 48.28844 -48.82869 40803 ft 532 kts 72°
2026-04-24 09:30 48.30928 -48.74158 40803 ft 533 kts 72°
2026-04-24 09:31 48.33432 -48.63650 40804 ft 534 kts 72°
2026-04-24 09:31 48.35926 -48.53132 40809 ft 533 kts 72°
2026-04-24 09:32 48.38409 -48.42609 40808 ft 533 kts 72°
2026-04-24 09:32 48.40866 -48.32151 40805 ft 533 kts 72°
2026-04-24 09:33 48.43331 -48.21603 40805 ft 534 kts 72°
2026-04-24 09:33 48.45790 -48.11029 40801 ft 534 kts 72°
2026-04-24 09:34 48.48216 -48.00544 40802 ft 533 kts 72°
2026-04-24 09:34 48.50645 -47.89996 40799 ft 532 kts 72°
2026-04-24 09:35 48.53067 -47.79429 40800 ft 533 kts 72°
2026-04-24 09:35 48.55486 -47.68817 40796 ft 534 kts 73°
2026-04-24 09:36 48.57898 -47.58192 40803 ft 534 kts 73°
2026-04-24 09:36 48.60294 -47.47575 40799 ft 534 kts 73°
2026-04-24 09:37 48.62680 -47.36958 40800 ft 534 kts 73°
2026-04-24 09:37 48.65043 -47.26380 40792 ft 534 kts 73°
2026-04-24 09:38 48.67411 -47.15730 40793 ft 534 kts 73°
2026-04-24 09:38 48.69768 -47.05081 40792 ft 533 kts 73°
2026-04-24 09:39 48.72111 -46.94434 40790 ft 533 kts 73°
2026-04-24 09:39 48.74449 -46.83759 40780 ft 533 kts 73°
2026-04-24 09:40 48.76759 -46.73152 40794 ft 533 kts 73°
2026-04-24 09:40 48.79074 -46.62472 40798 ft 533 kts 73°
2026-04-24 09:41 48.81383 -46.51765 40796 ft 533 kts 73°
2026-04-24 09:41 48.83682 -46.41049 40789 ft 533 kts 73°
2026-04-24 09:42 48.85968 -46.30335 40791 ft 533 kts 73°
2026-04-24 09:42 48.88229 -46.19684 40785 ft 532 kts 73°
2026-04-24 09:43 48.90491 -46.08966 40789 ft 532 kts 73°
2026-04-24 09:43 48.92746 -45.98226 40795 ft 533 kts 74°
2026-04-24 09:44 48.94994 -45.87469 40794 ft 533 kts 74°
2026-04-24 09:44 48.97226 -45.76730 40794 ft 532 kts 74°
2026-04-24 09:45 48.99447 -45.65981 40788 ft 532 kts 74°
2026-04-24 09:45 49.01660 -45.55216 40789 ft 532 kts 74°
2026-04-24 09:46 49.03861 -45.44450 40787 ft 532 kts 74°
2026-04-24 09:46 49.06051 -45.33675 40789 ft 531 kts 74°
2026-04-24 09:47 49.08217 -45.22966 40786 ft 531 kts 74°
2026-04-24 09:47 49.10388 -45.12174 40786 ft 532 kts 74°
2026-04-24 09:48 49.12548 -45.01378 40789 ft 531 kts 75°
2026-04-24 09:48 49.14694 -44.90589 40781 ft 530 kts 75°
2026-04-24 09:49 49.16824 -44.79817 40780 ft 530 kts 75°
2026-04-24 09:49 49.18938 -44.69069 40783 ft 531 kts 75°
2026-04-24 09:50 49.21059 -44.58226 40784 ft 532 kts 75°
2026-04-24 09:50 49.23170 -44.47375 40778 ft 532 kts 75°
2026-04-24 09:51 49.25268 -44.36528 40777 ft 531 kts 75°
2026-04-24 09:51 49.27358 -44.25660 40779 ft 532 kts 75°
2026-04-24 09:52 49.29415 -44.14896 40456 ft 524 kts 72°
2026-04-24 09:52 49.30434 -44.09544 40578 ft 522 kts 71°
2026-04-24 09:52 49.31451 -44.04200 40698 ft 523 kts 72°
2026-04-24 09:53 49.33485 -43.93439 40775 ft 527 kts 72°
2026-04-24 09:53 49.35517 -43.82621 40773 ft 527 kts 72°
2026-04-24 09:54 49.37524 -43.71880 40790 ft 526 kts 72°
2026-04-24 09:54 49.39529 -43.61087 40779 ft 525 kts 72°
2026-04-24 09:55 49.41525 -43.50287 40777 ft 525 kts 72°
2026-04-24 09:55 49.43510 -43.39480 40775 ft 526 kts 72°
2026-04-24 09:56 49.45484 -43.28665 40784 ft 525 kts 72°
2026-04-24 09:56 49.47436 -43.17907 40772 ft 524 kts 72°
2026-04-24 09:57 49.49384 -43.07104 40764 ft 523 kts 72°
2026-04-24 09:57 49.50997 -42.98120 40765 ft 524 kts 72°
2026-04-24 09:58 49.52928 -42.87298 40764 ft 524 kts 72°
2026-04-24 09:58 49.54849 -42.76465 40766 ft 524 kts 72°
2026-04-24 09:59 49.56756 -42.65648 40760 ft 522 kts 72°
2026-04-24 09:59 49.58652 -42.54828 40733 ft 524 kts 72°
2026-04-24 10:00 49.60546 -42.43953 40755 ft 525 kts 72°
2026-04-24 10:00 49.62430 -42.33071 40747 ft 525 kts 73°
2026-04-24 10:01 49.64291 -42.22251 40748 ft 525 kts 73°
2026-04-24 10:01 49.66160 -42.11318 40752 ft 526 kts 73°
2026-04-24 10:02 49.68013 -42.00402 40747 ft 525 kts 73°
2026-04-24 10:02 49.69859 -41.89473 40758 ft 525 kts 73°
2026-04-24 10:03 49.71691 -41.78549 40753 ft 525 kts 73°
2026-04-24 10:03 49.73508 -41.67601 40755 ft 525 kts 73°
2026-04-24 10:04 49.75322 -41.56735 40752 ft 525 kts 73°
2026-04-24 10:04 49.77116 -41.45769 40751 ft 526 kts 73°
2026-04-24 10:05 49.78917 -41.34784 40754 ft 527 kts 73°
2026-04-24 10:05 49.80699 -41.23800 40751 ft 526 kts 74°
2026-04-24 10:06 49.83355 -41.07310 40751 ft 526 kts 73°
2026-04-24 10:07 49.85118 -40.96285 40752 ft 527 kts 74°
2026-04-24 10:07 49.86866 -40.85259 40745 ft 526 kts 74°
2026-04-24 10:08 49.88589 -40.74330 40744 ft 525 kts 74°
2026-04-24 10:08 49.90315 -40.63313 40742 ft 526 kts 74°
2026-04-24 10:09 49.92030 -40.52275 40750 ft 526 kts 74°
2026-04-24 10:09 49.93735 -40.41244 40748 ft 525 kts 74°
2026-04-24 10:10 49.95427 -40.30215 40747 ft 525 kts 74°
2026-04-24 10:10 49.97108 -40.19182 40747 ft 525 kts 75°
2026-04-24 10:11 49.98779 -40.08132 40754 ft 525 kts 75°
2026-04-24 10:11 50.00703 -39.97202 40732 ft 522 kts 66°
2026-04-24 10:12 50.03347 -39.86755 40745 ft 522 kts 66°
2026-04-24 10:12 50.05982 -39.76216 40747 ft 523 kts 66°
2026-04-24 10:13 50.08620 -39.65671 40753 ft 522 kts 67°
2026-04-24 10:13 50.09927 -39.60400 40954 ft 523 kts 66°
2026-04-24 10:13 50.11240 -39.55115 40955 ft 522 kts 66°
2026-04-24 10:14 50.13857 -39.44540 40951 ft 522 kts 66°
2026-04-24 10:14 50.16458 -39.33969 40951 ft 522 kts 67°
2026-04-24 10:15 50.19037 -39.23442 40943 ft 522 kts 67°
2026-04-24 10:15 50.21623 -39.12834 40945 ft 522 kts 67°
2026-04-24 10:16 50.24192 -39.02241 40942 ft 522 kts 67°
2026-04-24 10:16 50.26760 -38.91607 40947 ft 522 kts 67°
2026-04-24 10:17 50.29300 -38.81033 40946 ft 522 kts 67°
2026-04-24 10:17 50.31850 -38.70369 40939 ft 522 kts 67°
2026-04-24 10:18 50.34382 -38.59726 40936 ft 521 kts 67°
2026-04-24 10:18 50.36906 -38.49069 40930 ft 522 kts 68°
2026-04-24 10:19 50.39403 -38.38468 40932 ft 521 kts 68°
2026-04-24 10:19 50.41904 -38.27797 40928 ft 521 kts 68°
2026-04-24 10:20 50.44392 -38.17134 40925 ft 520 kts 68°
2026-04-24 10:20 50.46870 -38.06457 40919 ft 520 kts 68°
2026-04-24 10:21 50.49338 -37.95774 40921 ft 520 kts 68°
2026-04-24 10:21 50.51796 -37.85079 40920 ft 519 kts 68°
2026-04-24 10:22 50.54219 -37.74480 40908 ft 518 kts 68°
2026-04-24 10:22 50.56649 -37.63802 40909 ft 519 kts 68°
2026-04-24 10:23 50.59072 -37.53098 40907 ft 518 kts 69°
2026-04-24 10:23 50.61482 -37.42398 40907 ft 517 kts 69°
2026-04-24 10:24 50.63876 -37.31712 40902 ft 517 kts 69°
2026-04-24 10:24 50.66258 -37.21028 40898 ft 516 kts 69°
2026-04-24 10:25 50.68617 -37.10390 40900 ft 517 kts 69°
2026-04-24 10:25 50.70979 -36.99685 40884 ft 515 kts 69°
2026-04-24 10:26 50.73320 -36.89022 40880 ft 514 kts 69°
2026-04-24 10:26 50.75654 -36.78337 40875 ft 515 kts 69°
2026-04-24 10:27 50.77976 -36.67646 40874 ft 514 kts 69°
2026-04-24 10:27 50.80294 -36.56920 40886 ft 514 kts 69°
2026-04-24 10:28 50.82592 -36.46229 40877 ft 512 kts 69°
2026-04-24 10:28 50.84864 -36.35611 40880 ft 513 kts 69°
2026-04-24 10:29 50.87141 -36.24905 40865 ft 514 kts 69°
2026-04-24 10:29 50.89411 -36.14184 40866 ft 512 kts 70°
2026-04-24 10:30 50.91660 -36.03498 40868 ft 511 kts 70°
2026-04-24 10:30 50.93901 -35.92795 40862 ft 511 kts 70°
2026-04-24 10:31 50.96133 -35.82079 40860 ft 511 kts 70°
2026-04-24 10:31 50.98355 -35.71356 40861 ft 512 kts 70°
2026-04-24 10:32 51.00555 -35.60678 40856 ft 511 kts 70°
2026-04-24 10:32 51.02758 -35.49931 40857 ft 512 kts 70°
2026-04-24 10:33 51.04953 -35.39162 40848 ft 511 kts 70°
2026-04-24 10:33 51.07141 -35.28368 40843 ft 510 kts 70°
2026-04-24 10:34 51.09285 -35.17735 40832 ft 504 kts 71°
2026-04-24 10:34 51.11411 -35.07137 40845 ft 506 kts 70°
2026-04-24 10:35 51.13541 -34.96453 40837 ft 506 kts 71°
2026-04-24 10:35 51.15664 -34.85753 40839 ft 507 kts 71°
2026-04-24 10:36 51.17782 -34.75014 40829 ft 505 kts 71°
2026-04-24 10:36 51.19882 -34.64311 40818 ft 506 kts 71°
2026-04-24 10:37 51.21976 -34.53572 40818 ft 507 kts 71°
2026-04-24 10:37 51.24049 -34.42885 40818 ft 507 kts 71°
2026-04-24 10:38 51.26124 -34.32127 40815 ft 507 kts 72°
2026-04-24 10:38 51.28188 -34.21366 40815 ft 506 kts 72°
2026-04-24 10:39 51.30241 -34.10604 40813 ft 506 kts 72°
2026-04-24 10:39 51.32285 -33.99824 40806 ft 507 kts 72°
2026-04-24 10:40 51.34319 -33.89039 40793 ft 506 kts 72°
2026-04-24 10:40 51.36342 -33.78245 40787 ft 507 kts 72°
2026-04-24 10:41 51.38360 -33.67414 40792 ft 508 kts 72°
2026-04-24 10:41 51.40355 -33.56650 40781 ft 507 kts 72°
2026-04-24 10:42 51.42353 -33.45801 40780 ft 508 kts 73°
2026-04-24 10:42 51.44345 -33.34924 40777 ft 508 kts 73°
2026-04-24 10:43 51.45992 -33.25879 40771 ft 508 kts 73°
2026-04-24 10:43 51.47965 -33.14988 40769 ft 508 kts 73°
2026-04-24 10:44 51.49928 -33.04088 40752 ft 508 kts 73°
2026-04-24 10:44 51.51880 -32.93180 40748 ft 508 kts 74°
2026-04-24 10:45 51.53820 -32.82272 40744 ft 508 kts 74°
2026-04-24 10:45 51.55748 -32.71369 40746 ft 507 kts 74°
2026-04-24 10:46 51.57666 -32.60454 40743 ft 508 kts 74°
2026-04-24 10:46 51.59562 -32.49601 40740 ft 503 kts 75°
2026-04-24 10:47 51.61445 -32.38755 40729 ft 503 kts 75°
2026-04-24 10:47 51.63323 -32.27871 40723 ft 505 kts 75°
2026-04-24 10:48 51.65193 -32.16967 40725 ft 504 kts 75°
2026-04-24 10:48 51.67048 -32.06080 40727 ft 504 kts 75°
2026-04-24 10:49 51.68879 -31.95264 40719 ft 504 kts 75°
2026-04-24 10:49 51.70717 -31.84347 40716 ft 503 kts 75°
2026-04-24 10:50 51.72532 -31.73485 40714 ft 503 kts 75°
2026-04-24 10:50 51.74346 -31.62570 40716 ft 503 kts 75°
2026-04-24 10:51 51.76148 -31.51660 40708 ft 500 kts 76°
2026-04-24 10:51 51.77934 -31.40772 40683 ft 502 kts 76°
2026-04-24 10:52 51.79716 -31.29838 40682 ft 504 kts 76°
2026-04-24 10:52 51.81487 -31.18906 40672 ft 502 kts 76°
2026-04-24 10:53 51.83245 -31.07974 40666 ft 504 kts 76°
2026-04-24 10:53 51.84986 -30.97081 40677 ft 504 kts 76°
2026-04-24 10:54 51.86725 -30.86134 40675 ft 503 kts 76°
2026-04-24 10:54 51.88456 -30.75153 40683 ft 501 kts 76°
2026-04-24 10:55 51.90164 -30.64259 40674 ft 502 kts 77°
2026-04-24 10:55 51.91029 -30.58694 40645 ft 516 kts 77°
2026-04-24 10:55 51.91915 -30.52993 40662 ft 527 kts 77°
2026-04-24 10:56 51.93688 -30.41541 40653 ft 526 kts 77°
2026-04-24 10:56 51.95454 -30.30024 40652 ft 526 kts 77°
2026-04-24 10:57 51.97210 -30.18500 40646 ft 527 kts 77°
2026-04-24 10:57 51.98954 -30.06973 40644 ft 525 kts 78°
2026-04-24 10:58 52.00677 -29.95460 40641 ft 525 kts 78°
2026-04-24 10:58 52.02317 -29.83913 40640 ft 525 kts 78°
2026-04-24 10:59 52.03975 -29.72444 40631 ft 525 kts 78°
2026-04-24 10:59 52.05611 -29.60873 40623 ft 523 kts 78°
2026-04-24 11:00 52.07243 -29.49334 40622 ft 524 kts 78°
2026-04-24 11:00 52.08859 -29.37775 40625 ft 524 kts 79°
2026-04-24 11:01 52.10466 -29.26210 40620 ft 524 kts 79°
2026-04-24 11:01 52.12060 -29.14640 40616 ft 524 kts 79°
2026-04-24 11:02 52.13640 -29.03086 40624 ft 523 kts 79°
2026-04-24 11:02 52.15207 -28.91529 40622 ft 524 kts 79°
2026-04-24 11:03 52.16762 -28.79980 40624 ft 526 kts 79°
2026-04-24 11:03 52.18319 -28.68323 40629 ft 525 kts 79°
2026-04-24 11:04 52.19858 -28.56694 40629 ft 525 kts 79°
2026-04-24 11:04 52.21388 -28.45051 40635 ft 525 kts 79°
2026-04-24 11:05 52.22909 -28.33383 40640 ft 525 kts 80°
2026-04-24 11:05 52.24416 -28.21719 40641 ft 525 kts 80°
2026-04-24 11:06 52.25908 -28.10074 40637 ft 523 kts 80°
2026-04-24 11:06 52.27387 -27.98437 40641 ft 524 kts 80°
2026-04-24 11:07 52.29586 -27.80946 40643 ft 524 kts 80°
2026-04-24 11:07 52.31027 -27.69362 40648 ft 523 kts 81°
2026-04-24 11:08 52.32464 -27.57711 40649 ft 523 kts 81°
2026-04-24 11:08 52.33891 -27.46048 40653 ft 523 kts 81°
2026-04-24 11:09 52.35305 -27.34379 40664 ft 523 kts 81°
2026-04-24 11:09 52.36707 -27.22711 40658 ft 523 kts 81°
2026-04-24 11:10 52.38098 -27.11035 40663 ft 522 kts 81°
2026-04-24 11:10 52.39475 -26.99368 40662 ft 522 kts 81°
2026-04-24 11:11 52.40842 -26.87678 40674 ft 523 kts 81°
2026-04-24 11:11 52.42201 -26.75955 40669 ft 525 kts 81°
2026-04-24 11:12 52.43550 -26.64219 40684 ft 523 kts 81°
2026-04-24 11:12 52.44874 -26.52579 40685 ft 523 kts 81°
2026-04-24 11:13 52.46200 -26.40817 40681 ft 523 kts 82°
2026-04-24 11:13 52.47512 -26.29069 40689 ft 523 kts 82°
2026-04-24 11:14 52.48813 -26.17317 40695 ft 523 kts 82°
2026-04-24 11:14 52.50101 -26.05561 40694 ft 523 kts 82°
2026-04-24 11:15 52.51370 -25.93865 40699 ft 523 kts 82°
2026-04-24 11:15 52.52637 -25.82079 40700 ft 523 kts 82°
2026-04-24 11:16 52.53891 -25.70298 40800 ft 523 kts 82°
2026-04-24 11:16 52.55129 -25.58544 40801 ft 522 kts 82°
2026-04-24 11:17 52.56358 -25.46764 40805 ft 522 kts 82°
2026-04-24 11:17 52.57565 -25.35076 40811 ft 522 kts 82°
2026-04-24 11:18 52.58770 -25.23293 40815 ft 522 kts 83°
2026-04-24 11:18 52.59963 -25.11509 40824 ft 521 kts 83°
2026-04-24 11:19 52.61140 -24.99741 40850 ft 523 kts 83°
2026-04-24 11:19 52.62300 -24.88053 40827 ft 515 kts 83°
2026-04-24 11:20 52.63443 -24.76377 40817 ft 517 kts 83°
2026-04-24 11:20 52.64574 -24.64735 40834 ft 518 kts 83°
2026-04-24 11:21 52.65697 -24.53028 40843 ft 518 kts 83°
2026-04-24 11:21 52.66812 -24.41292 40845 ft 518 kts 83°
2026-04-24 11:22 52.67914 -24.29558 40854 ft 518 kts 83°
2026-04-24 11:22 52.69004 -24.17824 40851 ft 517 kts 84°
2026-04-24 11:23 52.70080 -24.06102 40858 ft 517 kts 84°
2026-04-24 11:23 52.71145 -23.94379 40864 ft 517 kts 84°
2026-04-24 11:24 52.72191 -23.82724 40862 ft 517 kts 84°
2026-04-24 11:24 52.73235 -23.70975 40871 ft 517 kts 84°
2026-04-24 11:25 52.74267 -23.59215 40868 ft 517 kts 84°
2026-04-24 11:25 52.75284 -23.47480 40877 ft 517 kts 84°
2026-04-24 11:26 52.76291 -23.35721 40877 ft 517 kts 84°
2026-04-24 11:26 52.77288 -23.23954 40876 ft 517 kts 84°
2026-04-24 11:27 52.78267 -23.12245 40894 ft 517 kts 85°
2026-04-24 11:27 52.79238 -23.00488 40892 ft 516 kts 85°
2026-04-24 11:28 52.80198 -22.88721 40897 ft 516 kts 85°
2026-04-24 11:28 52.81147 -22.76947 40900 ft 517 kts 85°
2026-04-24 11:29 52.82083 -22.65179 40907 ft 516 kts 85°
2026-04-24 11:29 52.83007 -22.53402 40914 ft 517 kts 85°
2026-04-24 11:30 52.83923 -22.41593 40916 ft 518 kts 85°
2026-04-24 11:30 52.84674 -22.31764 40926 ft 518 kts 85°
2026-04-24 11:31 52.85568 -22.19948 40924 ft 517 kts 85°
2026-04-24 11:31 52.86591 -22.06221 40932 ft 517 kts 86°
2026-04-24 11:32 52.87317 -21.96328 40927 ft 517 kts 86°
2026-04-24 11:32 52.88175 -21.84511 40938 ft 517 kts 86°
2026-04-24 11:33 52.89016 -21.72754 40935 ft 517 kts 86°
2026-04-24 11:33 52.89851 -21.60917 40943 ft 517 kts 86°
2026-04-24 11:34 52.90674 -21.49065 40949 ft 518 kts 86°
2026-04-24 11:34 52.91486 -21.37212 40951 ft 517 kts 86°
2026-04-24 11:35 52.92285 -21.25367 40950 ft 517 kts 86°
2026-04-24 11:35 52.93065 -21.13614 40948 ft 517 kts 86°
2026-04-24 11:36 52.93841 -21.01752 40954 ft 517 kts 86°
2026-04-24 11:36 52.94605 -20.89884 40958 ft 517 kts 86°
2026-04-24 11:37 52.95357 -20.78022 40960 ft 517 kts 87°
2026-04-24 11:37 52.96098 -20.66157 40955 ft 514 kts 87°
2026-04-24 11:38 52.96807 -20.54582 40952 ft 506 kts 87°
2026-04-24 11:38 52.97511 -20.42924 40965 ft 508 kts 88°
2026-04-24 11:39 52.98203 -20.31268 40964 ft 507 kts 88°
2026-04-24 11:39 52.98883 -20.19601 40970 ft 507 kts 88°
2026-04-24 11:40 52.99552 -20.07940 40969 ft 507 kts 88°
2026-04-24 11:40 53.00087 -19.96241 40981 ft 507 kts 91°
2026-04-24 11:41 53.00310 -19.84542 40977 ft 507 kts 91°
2026-04-24 11:41 53.00544 -19.72878 40976 ft 505 kts 91°
2026-04-24 11:42 53.00749 -19.61283 40988 ft 505 kts 91°
2026-04-24 11:42 53.00953 -19.49603 40985 ft 506 kts 92°
2026-04-24 11:43 53.01142 -19.37912 40994 ft 506 kts 92°
2026-04-24 11:43 53.01320 -19.26310 40996 ft 505 kts 92°
2026-04-24 11:44 53.01488 -19.14562 40998 ft 505 kts 92°
2026-04-24 11:44 53.01643 -19.02965 40995 ft 505 kts 92°
2026-04-24 11:45 53.01786 -18.91289 41001 ft 506 kts 92°
2026-04-24 11:45 53.01919 -18.79587 41007 ft 506 kts 92°
2026-04-24 11:46 53.02041 -18.67908 41012 ft 505 kts 92°
2026-04-24 11:46 53.02150 -18.56230 41008 ft 505 kts 92°
2026-04-24 11:47 53.02249 -18.44546 41016 ft 506 kts 93°
2026-04-24 11:47 53.02335 -18.32921 41022 ft 507 kts 93°
2026-04-24 11:48 53.02411 -18.21205 41018 ft 506 kts 93°
2026-04-24 11:48 53.02475 -18.09492 41029 ft 507 kts 93°
2026-04-24 11:49 53.02529 -17.97768 41016 ft 506 kts 93°
2026-04-24 11:49 53.02568 -17.86148 41031 ft 506 kts 93°
2026-04-24 11:50 53.02598 -17.74456 41028 ft 506 kts 94°
2026-04-24 11:50 53.02617 -17.62772 41029 ft 505 kts 94°
2026-04-24 11:51 53.02624 -17.51092 41008 ft 506 kts 94°
2026-04-24 11:51 53.02619 -17.39421 41035 ft 505 kts 94°
2026-04-24 11:52 53.02602 -17.27743 41045 ft 506 kts 94°
2026-04-24 11:52 53.02576 -17.16050 41044 ft 505 kts 94°
2026-04-24 11:53 53.02536 -17.04382 41048 ft 505 kts 94°
2026-04-24 11:53 53.02486 -16.92722 41043 ft 505 kts 94°
2026-04-24 11:54 53.02423 -16.81023 41055 ft 507 kts 94°
2026-04-24 11:54 53.02351 -16.69375 41051 ft 507 kts 95°
2026-04-24 11:55 53.02266 -16.57673 41061 ft 506 kts 95°
2026-04-24 11:55 53.02169 -16.45971 41056 ft 506 kts 95°
2026-04-24 11:56 53.02062 -16.34275 41056 ft 506 kts 95°
2026-04-24 11:56 53.01944 -16.22642 41064 ft 507 kts 95°
2026-04-24 11:57 53.01812 -16.10932 41065 ft 507 kts 95°
2026-04-24 11:57 53.01670 -15.99228 41072 ft 507 kts 95°
2026-04-24 11:58 53.01516 -15.87536 41071 ft 506 kts 95°
2026-04-24 11:58 53.01351 -15.75843 41074 ft 506 kts 95°
2026-04-24 11:59 53.01175 -15.64153 41076 ft 506 kts 95°
2026-04-24 11:59 53.00987 -15.52464 41079 ft 506 kts 95°
2026-04-24 12:00 53.00787 -15.40769 41069 ft 506 kts 96°
2026-04-24 12:00 53.00576 -15.29096 41124 ft 506 kts 96°
2026-04-24 12:01 53.00356 -15.17497 41132 ft 507 kts 96°
2026-04-24 12:01 53.00122 -15.05797 41133 ft 507 kts 96°
2026-04-24 12:02 53.00018 -14.94093 41142 ft 508 kts 94°
2026-04-24 12:02 53.00069 -14.82361 41144 ft 507 kts 94°
2026-04-24 12:03 53.00085 -14.70639 41150 ft 509 kts 94°
2026-04-24 12:03 53.00105 -14.58886 41153 ft 508 kts 94°
2026-04-24 12:04 53.00106 -14.47136 41163 ft 508 kts 94°
2026-04-24 12:04 53.00098 -14.35490 41163 ft 508 kts 94°
2026-04-24 12:05 53.00077 -14.23761 41171 ft 508 kts 94°
2026-04-24 12:05 53.00046 -14.12011 41176 ft 509 kts 94°
2026-04-24 12:06 52.99993 -14.00265 41176 ft 507 kts 96°
2026-04-24 12:06 52.99418 -13.88628 41190 ft 505 kts 98°
2026-04-24 12:07 52.98858 -13.76976 41184 ft 506 kts 99°
2026-04-24 12:07 52.98239 -13.65333 41191 ft 507 kts 99°
2026-04-24 12:08 52.97639 -13.53733 41192 ft 507 kts 99°
2026-04-24 12:08 52.97009 -13.42062 41198 ft 507 kts 99°
2026-04-24 12:09 52.96375 -13.30429 41198 ft 506 kts 99°
2026-04-24 12:09 52.95728 -13.18795 41207 ft 507 kts 99°
2026-04-24 12:10 52.95068 -13.07117 41209 ft 508 kts 99°
2026-04-24 12:11 52.94056 -12.89630 41220 ft 507 kts 99°
2026-04-24 12:11 52.93373 -12.78051 41223 ft 508 kts 99°
2026-04-24 12:12 52.92673 -12.66392 41225 ft 508 kts 99°
2026-04-24 12:12 52.91465 -12.54918 41229 ft 503 kts 110°
2026-04-24 12:13 52.88664 -12.44386 41225 ft 497 kts 123°
2026-04-24 12:13 52.84579 -12.35243 41245 ft 493 kts 130°
2026-04-24 12:14 52.80312 -12.26344 41242 ft 494 kts 130°
2026-04-24 12:14 52.76041 -12.17536 41247 ft 494 kts 130°
2026-04-24 12:15 52.71741 -12.08660 41245 ft 495 kts 130°
2026-04-24 12:15 52.67411 -11.99773 41246 ft 497 kts 130°
2026-04-24 12:16 52.63075 -11.90895 41239 ft 496 kts 131°
2026-04-24 12:16 52.58745 -11.82065 41244 ft 495 kts 131°
2026-04-24 12:17 52.54438 -11.73310 41247 ft 495 kts 131°
2026-04-24 12:17 52.50097 -11.64516 41241 ft 495 kts 131°
2026-04-24 12:18 52.46453 -11.57160 41250 ft 495 kts 131°
2026-04-24 12:18 52.42130 -11.48460 41231 ft 495 kts 131°
2026-04-24 12:19 52.37765 -11.39707 41236 ft 497 kts 131°
2026-04-24 12:19 52.33379 -11.30938 41247 ft 498 kts 131°
2026-04-24 12:20 52.28990 -11.22194 41239 ft 497 kts 131°
2026-04-24 12:20 52.24601 -11.13482 41239 ft 497 kts 131°
2026-04-24 12:21 52.20206 -11.04787 41250 ft 496 kts 131°
2026-04-24 12:21 52.15818 -10.96139 41245 ft 495 kts 132°
2026-04-24 12:22 52.11447 -10.87551 41247 ft 495 kts 132°
2026-04-24 12:22 52.07036 -10.78913 41242 ft 498 kts 131°
2026-04-24 12:23 52.02591 -10.70240 41251 ft 500 kts 132°
2026-04-24 12:23 51.98146 -10.61592 41251 ft 498 kts 132°
2026-04-24 12:24 51.93765 -10.52883 41240 ft 500 kts 127°
2026-04-24 12:24 51.90218 -10.43166 41251 ft 502 kts 122°
2026-04-24 12:25 51.86732 -10.33361 41262 ft 502 kts 122°
2026-04-24 12:25 51.83258 -10.23567 41261 ft 502 kts 122°
2026-04-24 12:26 51.79784 -10.13851 41268 ft 502 kts 122°
2026-04-24 12:26 51.76281 -10.04066 41269 ft 503 kts 122°
2026-04-24 12:27 51.72770 -9.94312 41268 ft 503 kts 123°
2026-04-24 12:27 51.69258 -9.84579 41269 ft 502 kts 123°
2026-04-24 12:28 51.65732 -9.74859 41267 ft 503 kts 123°
2026-04-24 12:28 51.62197 -9.65141 41254 ft 503 kts 123°
2026-04-24 12:29 51.58640 -9.55403 41255 ft 505 kts 123°
2026-04-24 12:29 51.55101 -9.45753 41267 ft 504 kts 123°
2026-04-24 12:30 51.51534 -9.36062 41262 ft 504 kts 123°
2026-04-24 12:30 51.47956 -9.26375 41262 ft 504 kts 123°
2026-04-24 12:31 51.44372 -9.16712 41266 ft 504 kts 123°
2026-04-24 12:31 51.40779 -9.07062 41266 ft 505 kts 123°
2026-04-24 12:32 51.37162 -8.97384 41278 ft 506 kts 123°
2026-04-24 12:32 51.33538 -8.87724 41272 ft 506 kts 123°
2026-04-24 12:33 51.29904 -8.78071 41272 ft 506 kts 123°
2026-04-24 12:33 51.26261 -8.68433 41268 ft 506 kts 123°
2026-04-24 12:34 51.22638 -8.58882 41251 ft 507 kts 123°
2026-04-24 12:34 51.18973 -8.49257 41279 ft 502 kts 123°
2026-04-24 12:35 51.15339 -8.39753 41272 ft 503 kts 123°
2026-04-24 12:35 51.11684 -8.30223 41281 ft 504 kts 123°
2026-04-24 12:36 51.08023 -8.20713 41282 ft 503 kts 123°
2026-04-24 12:36 51.04377 -8.11280 41280 ft 505 kts 124°
2026-04-24 12:37 51.00693 -8.01781 41279 ft 504 kts 124°
2026-04-24 12:37 50.97181 -7.92113 41283 ft 506 kts 122°
2026-04-24 12:38 50.93685 -7.82397 41287 ft 508 kts 122°
2026-04-24 12:38 50.90182 -7.72676 41287 ft 506 kts 122°
2026-04-24 12:39 50.83149 -7.53287 41295 ft 506 kts 122°
2026-04-24 12:40 50.79657 -7.43713 41300 ft 502 kts 122°
2026-04-24 12:40 50.77907 -7.38931 41777 ft 501 kts 122°
2026-04-24 12:40 50.76180 -7.34216 42063 ft 502 kts 122°
2026-04-24 12:40 50.74429 -7.29444 42369 ft 502 kts 122°
2026-04-24 12:41 50.72676 -7.24680 42665 ft 501 kts 122°
2026-04-24 12:41 50.70922 -7.19922 42949 ft 502 kts 122°
2026-04-24 12:41 50.69166 -7.15165 43194 ft 502 kts 122°
2026-04-24 12:42 50.65613 -7.05569 43290 ft 512 kts 122°
2026-04-24 12:42 50.61975 -6.95777 43277 ft 522 kts 122°
2026-04-24 12:43 50.58262 -6.85822 43292 ft 532 kts 122°
2026-04-24 12:43 50.54470 -6.75697 43295 ft 541 kts 122°
2026-04-24 12:44 50.50613 -6.65438 43292 ft 549 kts 122°
2026-04-24 12:44 50.46721 -6.55127 43290 ft 555 kts 122°
2026-04-24 12:45 50.42756 -6.44664 43288 ft 560 kts 122°
2026-04-24 12:45 50.38749 -6.34133 43290 ft 564 kts 122°
2026-04-24 12:46 50.34694 -6.23519 43290 ft 569 kts 122°
2026-04-24 12:46 50.30595 -6.12836 43290 ft 575 kts 122°
2026-04-24 12:47 50.26483 -6.02161 43252 ft 580 kts 122°
2026-04-24 12:47 50.22284 -5.91303 43213 ft 587 kts 122°
2026-04-24 12:48 50.18028 -5.80348 43178 ft 593 kts 122°
2026-04-24 12:48 50.13725 -5.69317 43168 ft 599 kts 122°
2026-04-24 12:49 50.09349 -5.58145 43224 ft 605 kts 122°
2026-04-24 12:49 50.04963 -5.46998 43201 ft 610 kts 122°
2026-04-24 12:50 50.00499 -5.35699 43197 ft 615 kts 122°
2026-04-24 12:50 49.95989 -5.24336 43203 ft 620 kts 122°
2026-04-24 12:51 49.91432 -5.12901 43276 ft 625 kts 122°
2026-04-24 12:51 49.86833 -5.01411 43300 ft 629 kts 122°
2026-04-24 12:51 49.84530 -4.95677 43286 ft 617 kts 122°
2026-04-24 12:52 49.82306 -4.90144 43270 ft 594 kts 123°
2026-04-24 12:52 49.80152 -4.84805 43270 ft 571 kts 123°
2026-04-24 12:52 49.78089 -4.79704 43266 ft 549 kts 122°
2026-04-24 12:52 49.76100 -4.74790 43267 ft 528 kts 123°
2026-04-24 12:53 49.74183 -4.70064 43263 ft 511 kts 123°
2026-04-24 12:53 49.70445 -4.60877 43266 ft 508 kts 123°
2026-04-24 12:54 49.66666 -4.51614 43268 ft 510 kts 123°
2026-04-24 12:54 49.62851 -4.42302 43283 ft 515 kts 125°
2026-04-24 12:55 49.58995 -4.32933 43279 ft 517 kts 126°
2026-04-24 12:55 49.54931 -4.23895 43282 ft 516 kts 127°
2026-04-24 12:56 49.50822 -4.14739 43280 ft 516 kts 127°
2026-04-24 12:56 49.46738 -4.05715 43280 ft 516 kts 127°
2026-04-24 12:57 49.42629 -3.96647 43265 ft 517 kts 127°
2026-04-24 12:57 49.38504 -3.87583 43279 ft 519 kts 127°
2026-04-24 12:58 49.34363 -3.78510 43267 ft 518 kts 127°
2026-04-24 12:58 49.30219 -3.69465 43277 ft 518 kts 127°
2026-04-24 12:59 49.26092 -3.60487 43275 ft 519 kts 127°
2026-04-24 12:59 49.21929 -3.51459 43267 ft 519 kts 127°
2026-04-24 13:00 49.17755 -3.42440 43256 ft 520 kts 127°
2026-04-24 13:00 49.13563 -3.33410 43264 ft 521 kts 127°
2026-04-24 13:01 49.09367 -3.24402 43262 ft 520 kts 127°
2026-04-24 13:01 49.05164 -3.15410 43265 ft 520 kts 127°
2026-04-24 13:02 49.00958 -3.06442 43255 ft 520 kts 127°
2026-04-24 13:02 48.96741 -2.97482 43259 ft 520 kts 127°
2026-04-24 13:03 48.92543 -2.88590 43256 ft 521 kts 127°
2026-04-24 13:03 48.88304 -2.79642 43254 ft 521 kts 127°
2026-04-24 13:04 48.84063 -2.70717 43241 ft 521 kts 127°
2026-04-24 13:04 48.79812 -2.61803 43241 ft 521 kts 127°
2026-04-24 13:05 48.75558 -2.52908 43227 ft 521 kts 127°
2026-04-24 13:05 48.72017 -2.45499 43210 ft 521 kts 127°
2026-04-24 13:06 48.67750 -2.36617 43185 ft 521 kts 127°
2026-04-24 13:06 48.63475 -2.27738 43165 ft 522 kts 127°
2026-04-24 13:07 48.59217 -2.18929 43150 ft 521 kts 128°
2026-04-24 13:07 48.54934 -2.10093 43152 ft 522 kts 127°
2026-04-24 13:08 48.50632 -2.01253 43215 ft 522 kts 127°
2026-04-24 13:08 48.46327 -1.92427 43207 ft 522 kts 128°
2026-04-24 13:09 48.39918 -1.79350 43212 ft 522 kts 128°
2026-04-24 13:09 48.35596 -1.70563 43197 ft 522 kts 128°
2026-04-24 13:10 48.31258 -1.61777 43190 ft 524 kts 128°
2026-04-24 13:10 48.26901 -1.52974 43188 ft 525 kts 128°
2026-04-24 13:11 48.22592 -1.44303 43193 ft 524 kts 128°
2026-04-24 13:11 48.18221 -1.35530 43188 ft 524 kts 128°
2026-04-24 13:12 48.13872 -1.26835 43199 ft 525 kts 128°
2026-04-24 13:12 48.09483 -1.18083 43209 ft 526 kts 128°
2026-04-24 13:13 48.05138 -1.09448 43203 ft 526 kts 128°
2026-04-24 13:13 48.00727 -1.00710 43204 ft 527 kts 128°
2026-04-24 13:14 47.96307 -0.91983 43162 ft 526 kts 128°
2026-04-24 13:14 47.91883 -0.83276 43156 ft 525 kts 128°
2026-04-24 13:15 47.87530 -0.74734 43163 ft 527 kts 128°
2026-04-24 13:15 47.83084 -0.66038 43174 ft 527 kts 128°
2026-04-24 13:16 47.78642 -0.57376 43169 ft 526 kts 128°
2026-04-24 13:16 47.74194 -0.48736 43151 ft 527 kts 128°
2026-04-24 13:17 47.69757 -0.40138 43137 ft 527 kts 128°
2026-04-24 13:17 47.65291 -0.31515 43126 ft 527 kts 128°
2026-04-24 13:18 47.60819 -0.22903 43291 ft 527 kts 128°
2026-04-24 13:18 47.56356 -0.14337 43225 ft 523 kts 129°
2026-04-24 13:19 47.51977 -0.05960 43217 ft 523 kts 129°
2026-04-24 13:19 47.47519 0.02541 43124 ft 523 kts 128°
2026-04-24 13:20 47.43049 0.11039 43120 ft 524 kts 129°
2026-04-24 13:20 47.38562 0.19545 43116 ft 524 kts 129°
2026-04-24 13:21 47.34077 0.28020 43141 ft 523 kts 129°
2026-04-24 13:21 47.29587 0.36478 43151 ft 525 kts 129°
2026-04-24 13:22 47.25076 0.44950 43166 ft 526 kts 129°
2026-04-24 13:22 47.20550 0.53424 43167 ft 527 kts 129°
2026-04-24 13:23 47.16152 0.61631 43149 ft 526 kts 129°
2026-04-24 13:23 47.11604 0.70095 43135 ft 528 kts 129°
2026-04-24 13:24 47.07048 0.78546 43119 ft 527 kts 129°
2026-04-24 13:24 47.02487 0.86981 43116 ft 527 kts 129°
2026-04-24 13:25 46.97768 0.95224 43114 ft 529 kts 132°
2026-04-24 13:25 46.92937 1.03426 43120 ft 531 kts 131°
2026-04-24 13:26 46.88116 1.11584 43121 ft 529 kts 131°
2026-04-24 13:26 46.83332 1.19654 43116 ft 529 kts 132°
2026-04-24 13:27 46.78502 1.27778 43131 ft 530 kts 131°
2026-04-24 13:27 46.73653 1.35908 43148 ft 530 kts 131°
2026-04-24 13:28 46.68816 1.43996 43156 ft 529 kts 131°
2026-04-24 13:28 46.63981 1.52056 43151 ft 528 kts 131°
2026-04-24 13:29 46.59165 1.60060 43139 ft 530 kts 132°
2026-04-24 13:29 46.54295 1.68129 43133 ft 528 kts 132°
2026-04-24 13:30 46.49442 1.76148 43116 ft 529 kts 132°
2026-04-24 13:30 46.44583 1.84153 43119 ft 528 kts 132°
2026-04-24 13:31 46.39717 1.92146 43116 ft 529 kts 132°
2026-04-24 13:31 46.34830 2.00149 43110 ft 531 kts 132°
2026-04-24 13:32 46.29993 2.08049 43116 ft 526 kts 132°
2026-04-24 13:32 46.25130 2.15965 43116 ft 527 kts 133°
2026-04-24 13:33 46.20260 2.23895 43112 ft 527 kts 132°
2026-04-24 13:33 46.15427 2.31877 43115 ft 528 kts 132°
2026-04-24 13:34 46.10560 2.39806 43104 ft 527 kts 132°
2026-04-24 13:34 46.05720 2.47721 43109 ft 525 kts 132°
2026-04-24 13:35 46.00877 2.55586 43111 ft 525 kts 132°
2026-04-24 13:35 45.96060 2.63406 43106 ft 526 kts 132°
2026-04-24 13:36 45.91188 2.71281 42630 ft 533 kts 132°
2026-04-24 13:36 45.88716 2.75271 41942 ft 533 kts 132°
2026-04-24 13:36 45.86259 2.79234 41245 ft 531 kts 133°
2026-04-24 13:37 45.83803 2.83184 40590 ft 529 kts 133°
2026-04-24 13:37 45.81342 2.87135 39898 ft 530 kts 133°
2026-04-24 13:37 45.78885 2.91081 39216 ft 530 kts 133°
2026-04-24 13:37 45.76432 2.95011 38470 ft 529 kts 133°
2026-04-24 13:38 45.73980 2.98933 37784 ft 529 kts 133°
2026-04-24 13:38 45.71511 3.02874 37083 ft 533 kts 133°
2026-04-24 13:38 45.69035 3.06827 36296 ft 532 kts 133°
2026-04-24 13:38 45.66583 3.10736 35603 ft 526 kts 133°
2026-04-24 13:39 45.64129 3.14638 34905 ft 529 kts 133°
2026-04-24 13:39 45.61697 3.18498 34215 ft 530 kts 133°
2026-04-24 13:39 45.59232 3.22412 33478 ft 530 kts 133°
2026-04-24 13:39 45.56772 3.26309 32784 ft 534 kts 134°
2026-04-24 13:40 45.54258 3.30281 32069 ft 535 kts 134°
2026-04-24 13:40 45.51795 3.34177 31372 ft 523 kts 133°
2026-04-24 13:40 45.49379 3.37991 30682 ft 514 kts 134°
2026-04-24 13:40 45.47000 3.41734 29992 ft 507 kts 134°
2026-04-24 13:41 45.44645 3.45439 29312 ft 500 kts 134°
2026-04-24 13:41 45.42315 3.49099 28657 ft 496 kts 134°
2026-04-24 13:41 45.39996 3.52736 28004 ft 492 kts 134°
2026-04-24 13:41 45.37718 3.56306 27362 ft 487 kts 134°
2026-04-24 13:42 45.35447 3.59863 26729 ft 483 kts 134°
2026-04-24 13:42 45.33206 3.63360 26096 ft 480 kts 134°
2026-04-24 13:42 45.31014 3.66781 25480 ft 476 kts 134°
2026-04-24 13:42 45.28791 3.70249 24854 ft 472 kts 134°
2026-04-24 13:43 45.26587 3.73687 24235 ft 468 kts 133°
2026-04-24 13:43 45.24645 3.77383 23690 ft 466 kts 123°
2026-04-24 13:43 45.22932 3.81265 23059 ft 461 kts 124°
2026-04-24 13:43 45.21245 3.84910 22476 ft 456 kts 125°
2026-04-24 13:44 45.19434 3.88813 21865 ft 470 kts 121°
2026-04-24 13:44 45.17682 3.92709 21238 ft 465 kts 121°
2026-04-24 13:44 45.15977 3.96496 20630 ft 458 kts 121°
2026-04-24 13:44 45.14250 4.00244 20027 ft 451 kts 122°
2026-04-24 13:45 45.12545 4.03943 19425 ft 444 kts 122°
2026-04-24 13:45 45.10885 4.07594 18832 ft 438 kts 122°
2026-04-24 13:45 45.09239 4.11195 18226 ft 433 kts 122°
2026-04-24 13:45 45.07602 4.14744 17634 ft 427 kts 122°
2026-04-24 13:46 45.05989 4.18252 17063 ft 421 kts 122°
2026-04-24 13:46 45.04322 4.21622 16484 ft 417 kts 129°
2026-04-24 13:46 45.02270 4.24475 15942 ft 412 kts 139°
2026-04-24 13:46 44.99925 4.26770 15389 ft 408 kts 149°
2026-04-24 13:47 44.97478 4.28749 14863 ft 403 kts 148°
2026-04-24 13:47 44.95110 4.30730 14340 ft 398 kts 148°
2026-04-24 13:47 44.92740 4.32689 13799 ft 392 kts 149°
2026-04-24 13:47 44.90389 4.34589 13259 ft 387 kts 149°
2026-04-24 13:48 44.88072 4.36484 12762 ft 385 kts 148°
2026-04-24 13:48 44.85767 4.38385 12255 ft 382 kts 148°
2026-04-24 13:48 44.83480 4.40255 11750 ft 378 kts 148°
2026-04-24 13:48 44.81211 4.42101 11250 ft 375 kts 148°
2026-04-24 13:49 44.78971 4.43934 10756 ft 370 kts 148°
2026-04-24 13:49 44.76755 4.45741 10269 ft 366 kts 148°
2026-04-24 13:49 44.74582 4.47514 10134 ft 353 kts 148°
2026-04-24 13:49 44.72525 4.49187 10121 ft 329 kts 148°
2026-04-24 13:50 44.70609 4.50744 10118 ft 307 kts 148°
2026-04-24 13:50 44.68820 4.52204 10114 ft 290 kts 149°
2026-04-24 13:50 44.67073 4.53540 10090 ft 288 kts 155°
2026-04-24 13:50 44.65150 4.54302 10064 ft 287 kts 167°
2026-04-24 13:51 44.63200 4.54894 10065 ft 286 kts 165°
2026-04-24 13:51 44.61268 4.55534 10038 ft 286 kts 166°
2026-04-24 13:51 44.59326 4.56134 10039 ft 286 kts 166°
2026-04-24 13:51 44.58037 4.56525 10052 ft 286 kts 165°
2026-04-24 13:52 44.56101 4.57131 10071 ft 285 kts 165°
2026-04-24 13:52 44.54163 4.57744 10084 ft 285 kts 166°
2026-04-24 13:52 44.52236 4.58345 10106 ft 283 kts 166°
2026-04-24 13:52 44.50308 4.58929 10104 ft 284 kts 167°
2026-04-24 13:53 44.48353 4.59363 10107 ft 284 kts 169°
2026-04-24 13:53 44.46396 4.59807 10108 ft 285 kts 168°
2026-04-24 13:53 44.44440 4.60264 10110 ft 285 kts 169°
2026-04-24 13:53 44.42479 4.60717 10116 ft 286 kts 169°
2026-04-24 13:54 44.40514 4.61168 10119 ft 286 kts 169°
2026-04-24 13:54 44.38556 4.61616 10125 ft 285 kts 168°
2026-04-24 13:54 44.36603 4.62065 10138 ft 285 kts 169°
2026-04-24 13:54 44.34667 4.62509 10125 ft 285 kts 168°
2026-04-24 13:55 44.32707 4.62959 10136 ft 285 kts 168°
2026-04-24 13:55 44.30743 4.63407 10111 ft 287 kts 169°
2026-04-24 13:55 44.28771 4.63857 10117 ft 287 kts 169°
2026-04-24 13:55 44.26795 4.64310 10120 ft 287 kts 169°
2026-04-24 13:56 44.24823 4.64762 10122 ft 288 kts 169°
2026-04-24 13:56 44.22844 4.65212 10130 ft 288 kts 169°
2026-04-24 13:56 44.20868 4.65664 10131 ft 288 kts 169°
2026-04-24 13:56 44.18891 4.66113 10114 ft 288 kts 169°
2026-04-24 13:57 44.16904 4.66567 10130 ft 288 kts 169°
2026-04-24 13:57 44.14926 4.67016 10133 ft 288 kts 169°
2026-04-24 13:57 44.12944 4.67467 10151 ft 288 kts 169°
2026-04-24 13:57 44.11018 4.68175 10103 ft 287 kts 156°
2026-04-24 13:58 44.09192 4.69277 10208 ft 286 kts 156°
2026-04-24 13:58 44.07333 4.70276 10209 ft 286 kts 158°
2026-04-24 13:58 44.05495 4.71280 10202 ft 287 kts 156°
2026-04-24 13:58 44.03651 4.72331 10203 ft 287 kts 156°
2026-04-24 13:59 44.01800 4.73375 10200 ft 287 kts 157°
2026-04-24 13:59 43.99940 4.74412 10209 ft 287 kts 157°
2026-04-24 13:59 43.98089 4.75450 10217 ft 287 kts 156°
2026-04-24 13:59 43.96243 4.76503 10195 ft 286 kts 156°
2026-04-24 14:00 43.94398 4.77549 10197 ft 286 kts 156°
2026-04-24 14:00 43.92555 4.78593 10194 ft 286 kts 156°
2026-04-24 14:00 43.90709 4.79634 10203 ft 286 kts 156°
2026-04-24 14:00 43.88868 4.80675 10209 ft 285 kts 156°
2026-04-24 14:01 43.87034 4.81711 10211 ft 285 kts 156°
2026-04-24 14:01 43.85198 4.82747 10212 ft 285 kts 156°
2026-04-24 14:01 43.83358 4.83784 10209 ft 285 kts 156°
2026-04-24 14:01 43.81547 4.84805 10199 ft 285 kts 156°
2026-04-24 14:02 43.79713 4.85838 10190 ft 285 kts 156°
2026-04-24 14:02 43.77873 4.86873 10178 ft 285 kts 156°
2026-04-24 14:02 43.76077 4.87883 10167 ft 285 kts 156°
2026-04-24 14:02 43.74278 4.89023 10114 ft 284 kts 146°
2026-04-24 14:03 43.72877 4.90924 10074 ft 282 kts 127°
2026-04-24 14:03 43.71728 4.93115 10096 ft 282 kts 126°
2026-04-24 14:03 43.70469 4.95203 10096 ft 284 kts 131°
2026-04-24 14:03 43.69105 4.97157 10119 ft 280 kts 133°
2026-04-24 14:04 43.67772 4.99118 10111 ft 280 kts 131°
2026-04-24 14:04 43.66465 5.01119 10113 ft 280 kts 131°
2026-04-24 14:04 43.65154 5.03102 10108 ft 279 kts 131°
2026-04-24 14:04 43.63840 5.05072 10063 ft 279 kts 132°
2026-04-24 14:05 43.62525 5.07051 10031 ft 279 kts 131°
2026-04-24 14:05 43.61216 5.09016 10026 ft 277 kts 131°
2026-04-24 14:05 43.59934 5.10945 10017 ft 276 kts 131°
2026-04-24 14:05 43.58627 5.12904 9936 ft 279 kts 132°
2026-04-24 14:06 43.57312 5.14876 10006 ft 278 kts 131°
2026-04-24 14:06 43.56002 5.16839 10014 ft 278 kts 132°
2026-04-24 14:06 43.54684 5.18813 9956 ft 281 kts 132°
2026-04-24 14:06 43.53357 5.20798 10004 ft 280 kts 132°
2026-04-24 14:07 43.52042 5.22761 10138 ft 277 kts 131°
2026-04-24 14:07 43.50734 5.24719 10234 ft 279 kts 131°
2026-04-24 14:07 43.49418 5.26685 10313 ft 283 kts 131°
2026-04-24 14:07 43.48084 5.28678 10191 ft 285 kts 131°
2026-04-24 14:08 43.46724 5.30705 9830 ft 287 kts 131°
2026-04-24 14:08 43.45368 5.32725 9452 ft 288 kts 131°
2026-04-24 14:08 43.44013 5.34738 9064 ft 283 kts 131°
2026-04-24 14:08 43.42679 5.36727 8688 ft 283 kts 131°
2026-04-24 14:09 43.41350 5.38703 8310 ft 279 kts 131°
2026-04-24 14:09 43.40085 5.40579 7930 ft 256 kts 131°
2026-04-24 14:09 43.38925 5.42299 7599 ft 236 kts 130°
2026-04-24 14:09 43.37851 5.43891 7299 ft 219 kts 131°
2026-04-24 14:10 43.36842 5.45373 7020 ft 207 kts 129°
2026-04-24 14:10 43.35886 5.46805 6748 ft 202 kts 129°
2026-04-24 14:10 43.34925 5.48238 6462 ft 209 kts 128°
2026-04-24 14:10 43.34110 5.49856 6180 ft 209 kts 115°
2026-04-24 14:11 43.33562 5.51707 5892 ft 209 kts 108°
2026-04-24 14:11 43.33052 5.53585 5573 ft 207 kts 110°
2026-04-24 14:11 43.32064 5.56961 5170 ft 168 kts 109°
2026-04-24 14:12 43.31643 5.58431 5172 ft 163 kts 108°
2026-04-24 14:12 43.31219 5.59882 5186 ft 165 kts 109°
2026-04-24 14:12 43.30788 5.61382 5189 ft 171 kts 109°
2026-04-24 14:12 43.30344 5.62901 5172 ft 172 kts 110°
2026-04-24 14:13 43.29896 5.64431 5047 ft 174 kts 109°
2026-04-24 14:13 43.29439 5.65988 4716 ft 181 kts 109°
2026-04-24 14:13 43.28987 5.67593 4221 ft 184 kts 108°
2026-04-24 14:13 43.28544 5.69256 3532 ft 186 kts 106°
2026-04-24 14:14 43.28156 5.70871 3145 ft 165 kts 104°
2026-04-24 14:14 43.27831 5.72329 2562 ft 158 kts 103°
2026-04-24 14:14 43.27124 5.74919 1958 ft 135 kts 115°
2026-04-24 14:15 43.26638 5.76006 1760 ft 133 kts 123°
2026-04-24 14:15 43.26087 5.77010 1559 ft 131 kts 123°
2026-04-24 14:15 43.25541 5.78007 1353 ft 131 kts 124°
2026-04-24 14:15 43.25057 5.78897 1317 ft 90 kts 128°
2026-04-24 14:16 43.24877 5.79203 1318 ft 9 kts 135°
2026-04-24 14:16 43.24887 5.79202 1320 ft 6 kts 304°
2026-04-24 14:16 43.24931 5.79121 1320 ft 12 kts 307°
2026-04-24 14:17 43.25056 5.78891 1317 ft 16 kts 306°
2026-04-24 14:17 43.25129 5.78760 1315 ft 19 kts 307°
2026-04-24 14:17 43.25087 5.78601 1319 ft 10 kts 247°
2026-04-24 14:18 43.25118 5.78512 1319 ft 7 kts 309°
2026-04-24 14:18 43.25126 5.78498 1320 ft 0 kts 304°